This demonstration page uses our WeatherBlox Daily Observations layout. Learn more.

39.29038, -76.61219

Hourly Observations for September 8, 2016

Temp ( °F °C ) Dew Point ( °F °C ) Humidity (%) Winds ( mph kmh ) Pressure ( in mb ) Visibility ( mi km ) Precip ( " mm )
12:54 am 00:54 undefined 78 25.6 70 21.1 76 76 undefined N/A 29.96 1015 N/A 0 0
1:54 am 01:54 undefined 78 25.6 71 21.7 79 79 undefined N/A 29.96 1014 N/A 0 0
2:54 am 02:54 undefined 77 25 71 21.7 82 82 undefined N/A 29.94 1014 N/A 0 0
3:54 am 03:54 undefined 77 25 71 21.7 82 82 undefined N/A 29.93 1014 N/A 0 0
4:54 am 04:54 undefined 77 25 71 21.7 82 82 undefined N/A 29.93 1014 N/A 0 0
5:54 am 05:54 undefined 78 25.6 71 21.7 79 79 undefined N/A 29.93 1014 N/A 0 0
6:54 am 06:54 undefined 78 25.6 71 21.7 79 79 undefined N/A 29.95 1014 N/A 0 0
7:54 am 07:54 undefined 79 26.1 71 21.7 77 77 undefined N/A 29.95 1014 N/A 0 0
8:54 am 08:54 undefined 82 27.8 70 21.1 67 67 undefined N/A 29.95 1014 N/A 0 0
9:54 am 09:54 undefined 86 30 71 21.7 61 61 undefined N/A 29.95 1014 N/A 0 0
10:54 am 10:54 undefined 89 31.7 71 21.7 55 55 undefined N/A 29.94 1014 N/A 0 0
11:54 am 11:54 undefined 91 32.8 71 21.7 52 52 undefined N/A 29.93 1014 N/A 0 0
12:54 pm 12:54 undefined 92 33.3 71 21.7 51 51 undefined N/A 29.92 1013 N/A 0 0
1:54 pm 13:54 undefined 92 33.3 70 21.1 49 49 undefined N/A 29.91 1013 N/A 0 0
2:54 pm 14:54 undefined 94 34.4 69 20.6 44 44 undefined N/A 29.9 1012 N/A 0 0
3:54 pm 15:54 undefined 94 34.4 68 20 43 43 undefined N/A 29.87 1012 N/A 0 0
4:54 pm 16:54 undefined 94 34.4 69 20.6 44 44 undefined N/A 29.86 1011 N/A 0 0
5:54 pm 17:54 undefined 93 33.9 68 20 44 44 undefined N/A 29.85 1011 N/A 0 0
6:54 pm 18:54 undefined 92 33.3 68 20 46 46 undefined N/A 29.87 1011 N/A 0 0
7:54 pm 19:54 undefined 91 32.8 68 20 47 47 undefined N/A 29.87 1011 N/A 0 0
8:54 pm 20:54 undefined 89 31.7 70 21.1 53 53 undefined N/A 29.88 1012 N/A 0 0
9:54 pm 21:54 undefined 88 31.1 70 21.1 55 55 undefined N/A 29.89 1012 N/A 0 0
10:54 pm 22:54 undefined 87 30.6 71 21.7 59 59 undefined N/A 29.89 1012 N/A 0 0
11:54 pm 23:54 undefined 86 30 71 21.7 61 61 undefined N/A 29.89 1012 N/A 0 0

Powered by AerisWeather